• Join FlightAware (Why Join?)
  • Login
  • US Flag 
09:44PM EDT


 

Airport Tracker/Info


-or-


 

Live Flight TrackerFlight Track Log ✈ ASH3770 ✈ 22-Apr-2013 ✈ KIAD - KAUS

Flight Track Log - Related Links

Times and Time Zones

All times are in EDT time to prevent confusion due to time zone crossing. See the ASH3770 flight status page for this flight to view local times or setup timezone preferences in your user account.

Time Position Orientation Groundspeed Altitude Reporting Facility
EDT Latitude Longitude Course Direction KTS MPH feet Rate Location/Type
12:57PM 38.9333 -77.5500 237° Southwest 206 237 2,200  Level Potomac TRACON
12:58PM 38.9000 -77.6167 237° Southwest 241 277 4,400 2,460 Climbing Potomac TRACON
12:59PM 38.8667 -77.7000 243° Southwest 270 311 7,200 2,760 Climbing Potomac TRACON
01:00PM 38.8333 -77.7833 243° Southwest 271 312 10,000 1,980 Climbing Potomac TRACON
01:01PM 38.7981 -77.8744 244° Southwest 288 331 11,100 1,680 Climbing Washington Center
01:02PM 38.7958 -77.9861 269° West 301 346 13,300 2,220 Climbing Washington Center
01:03PM 38.8267 -78.1017 289° West 314 361 15,600 1,800 Climbing Washington Center
01:04PM 38.8497 -78.1933 288° West 322 371 17,000 1,560 Climbing Washington Center
01:05PM 38.8528 -78.3400 272° West 341 392 18,800 1,800 Climbing Washington Center
01:06PM 38.8519 -78.4678 270° West 352 405 20,700 1,740 Climbing Washington Center
01:07PM 38.8508 -78.5958 269° West 358 412 22,300 1,500 Climbing Washington Center
01:08PM 38.8497 -78.7236 269° West 358 412 23,800 1,320 Climbing Washington Center
01:09PM 38.8483 -78.8542 269° West 368 423 25,000 1,080 Climbing Washington Center
01:10PM 38.8447 -78.9875 268° West 368 423 26,000 900 Climbing Washington Center
01:11PM 38.8428 -79.1233 269° West 374 430 26,900 840 Climbing Washington Center
01:12PM 38.8322 -79.2639 265° West 386 444 27,700 900 Climbing Washington Center
01:13PM 38.8092 -79.4014 258° West 396 456 28,800 1,140 Climbing Washington Center
01:14PM 38.7819 -79.5383 256° West 396 456 30,000 840 Climbing Washington Center
01:15PM 38.7561 -79.6836 257° West 414 476 30,500 480 Climbing Washington Center
01:16PM 38.7325 -79.8233 258° West 414 476 31,000 600 Climbing Washington Center
01:17PM 38.7044 -79.9653 256° West 414 476 31,700 780 Climbing Washington Center
01:19PM 38.6592 -80.1872 255° West 403 464 33,200 780 Climbing Indianapolis Center
01:20PM 38.6322 -80.3272 256° West 403 464 33,900 360 Climbing Indianapolis Center
01:21PM 38.6058 -80.4681 257° West 406 467 34,000  Climbing Indianapolis Center
01:22PM 38.5561 -80.6017 245° Southwest 413 475 34,000  Level Indianapolis Center
01:23PM 38.4883 -80.7589 241° Southwest 420 483 34,000  Level Indianapolis Center
01:24PM 38.4208 -80.8794 234° Southwest 416 479 34,000  Level Indianapolis Center
01:25PM 38.3492 -80.9983 232° Southwest 419 482 34,000  Level Indianapolis Center
01:26PM 38.3156 -81.1444 254° West 427 491 34,000  Level Indianapolis Center
01:27PM 38.2856 -81.2919 256° West 428 493 34,000  Level Indianapolis Center
01:28PM 38.2558 -81.4392 256° West 428 493 34,000 60 Level Indianapolis Center
01:29PM 38.2247 -81.5881 255° West 430 495 34,200 480 Climbing Indianapolis Center
01:30PM 38.1947 -81.7347 255° West 426 490 35,100 780 Climbing Indianapolis Center
01:31PM 38.1647 -81.8761 255° West 415 478 35,900 780 Climbing Indianapolis Center
01:32PM 38.1294 -82.0433 255° West 409 471 36,800 780 Climbing Indianapolis Center
01:33PM 38.1019 -82.1708 255° West 395 455 37,600 540 Climbing Indianapolis Center
01:34PM 38.0739 -82.3000 255° West 384 442 38,000 180 Climbing Indianapolis Center
01:35PM 38.0439 -82.4322 254° West 386 444 38,000  Level Indianapolis Center
01:36PM 38.0106 -82.5897 255° West 396 456 38,000  Level Indianapolis Center
01:37PM 37.9800 -82.7258 254° West 402 463 38,000  Level Indianapolis Center
01:38PM 37.9494 -82.8642 254° West 407 468 38,000  Level Indianapolis Center
01:39PM 37.9183 -83.0036 254° West 412 474 38,000  Level Indianapolis Center
01:40PM 37.8872 -83.1433 254° West 413 475 38,000  Level Indianapolis Center
01:41PM 37.8514 -83.3033 254° West 408 470 38,000  Level Indianapolis Center
01:42PM 37.8197 -83.4411 254° West 407 468 38,000  Level Indianapolis Center
01:43PM 37.7892 -83.5778 254° West 405 466 38,000  Level Indianapolis Center
01:44PM 37.7575 -83.7136 254° West 405 466 38,000  Level Indianapolis Center
01:45PM 37.7269 -83.8494 254° West 403 464 38,000  Level Indianapolis Center
01:46PM 37.6950 -83.9861 254° West 406 467 38,000  Level Indianapolis Center
01:47PM 37.6567 -84.1469 253° West 409 471 38,000  Level Indianapolis Center
01:48PM 37.6169 -84.2817 250° West 410 472 38,000  Level Indianapolis Center
01:49PM 37.5758 -84.4150 249° West 409 471 38,000  Level Indianapolis Center
01:51PM 37.5342 -84.5503 249° West 411 473 38,000  Level Indianapolis Center
01:52PM 37.4917 -84.6853 248° West 414 476 38,000  Level Indianapolis Center
01:53PM 37.4503 -84.8200 249° West 411 473 38,000  Level Indianapolis Center
01:54PM 37.4083 -84.9547 249° West 414 476 38,000  Level Indianapolis Center
01:55PM 37.3600 -85.1100 249° West 408 470 38,000  Level Indianapolis Center
01:56PM 37.3164 -85.2433 248° West 412 474 38,000  Level Indianapolis Center
01:57PM 37.2744 -85.3767 248° West 409 471 38,000  Level Indianapolis Center
01:58PM 37.2289 -85.5192 248° West 409 471 38,000  Level Indianapolis Center
01:59PM 37.1900 -85.6392 248° West 414 476 38,000  Level Indianapolis Center
01:59PM 37.1733 -85.6894 247° West 414 476 38,000  Level Memphis Center
02:00PM 37.1325 -85.8244 249° West 414 476 38,000  Level Memphis Center
02:01PM 37.0892 -85.9544 247° West 414 476 38,000  Level Memphis Center
02:02PM 37.0458 -86.0867 248° West 419 482 38,000  Level Memphis Center
02:03PM 37.0025 -86.2189 248° West 419 482 38,000  Level Memphis Center
02:04PM 36.9589 -86.3536 248° West 419 482 38,000  Level Memphis Center
02:05PM 36.9067 -86.4806 243° Southwest 419 482 38,000  Level Memphis Center
02:06PM 36.8439 -86.6031 237° Southwest 424 488 38,000  Level Memphis Center
02:07PM 36.7728 -86.7358 236° Southwest 425 489 38,000  Level Memphis Center
02:08PM 36.7075 -86.8578 236° Southwest 425 489 38,000  Level Memphis Center
02:09PM 36.6419 -86.9797 236° Southwest 430 495 38,000  Level Memphis Center
02:10PM 36.5764 -87.1011 236° Southwest 430 495 38,000  Level Memphis Center
02:11PM 36.5108 -87.2253 237° Southwest 430 495 38,000  Level Memphis Center
02:12PM 36.4431 -87.3464 235° Southwest 430 495 38,000  Level Memphis Center
02:13PM 36.3792 -87.4675 237° Southwest 430 495 38,000  Level Memphis Center
02:14PM 36.3111 -87.5858 235° Southwest 430 495 38,000  Level Memphis Center
02:15PM 36.2450 -87.7089 236° Southwest 435 501 38,000  Level Memphis Center
02:16PM 36.1767 -87.8294 235° Southwest 429 494 38,000  Level Memphis Center
02:17PM 36.1103 -87.9497 236° Southwest 427 491 38,000  Level Memphis Center
02:18PM 36.0436 -88.0747 237° Southwest 433 498 38,000  Level Memphis Center
02:19PM 35.9850 -88.1739 234° Southwest 425 489 38,000  Level Memphis Center
02:20PM 35.9142 -88.2964 234° Southwest 425 489 38,000  Level Memphis Center
02:21PM 35.8453 -88.4208 236° Southwest 435 501 38,000  Level Memphis Center
02:22PM 35.7761 -88.5403 235° Southwest 435 501 38,000  Level Memphis Center
02:23PM 35.7069 -88.6619 235° Southwest 435 501 38,000  Level Memphis Center
02:24PM 35.6378 -88.7836 235° Southwest 435 501 38,000  Level Memphis Center
02:25PM 35.5703 -88.9047 236° Southwest 430 495 38,000  Level Memphis Center
02:26PM 35.5028 -89.0258 236° Southwest 430 495 38,000  Level Memphis Center
02:27PM 35.4331 -89.1442 234° Southwest 430 495 38,000  Level Memphis Center
02:28PM 35.3675 -89.2622 236° Southwest 427 491 38,000  Level Memphis Center
02:29PM 35.2978 -89.3853 235° Southwest 432 497 38,000  Level Memphis Center
02:30PM 35.2297 -89.5003 234° Southwest 432 497 38,000  Level Memphis Center
02:31PM 35.1594 -89.6206 234° Southwest 432 497 38,000  Level Memphis Center
02:32PM 35.0914 -89.7403 235° Southwest 432 497 38,000  Level Memphis Center
02:33PM 35.0250 -89.8625 236° Southwest 432 497 38,000  Level Memphis Center
02:34PM 34.9525 -89.9797 233° Southwest 437 503 38,000  Level Memphis Center
02:35PM 34.8819 -90.0964 234° Southwest 437 503 38,000  Level Memphis Center
02:36PM 34.8111 -90.2156 234° Southwest 437 503 38,000  Level Memphis Center
02:37PM 34.7361 -90.3419 234° Southwest 432 497 38,000  Level Memphis Center
02:38PM 34.6631 -90.4631 234° Southwest 432 497 38,000  Level Memphis Center
02:39PM 34.5961 -90.5767 234° Southwest 432 497 38,000  Level Memphis Center
02:40PM 34.5228 -90.6950 233° Southwest 432 497 38,000  Level Memphis Center
02:41PM 34.4536 -90.8106 234° Southwest 432 497 38,000  Level Memphis Center
02:42PM 34.3822 -90.9258 233° Southwest 432 497 38,000  Level Memphis Center
02:43PM 34.3147 -91.0436 235° Southwest 432 497 38,000  Level Memphis Center
02:44PM 34.2453 -91.1561 233° Southwest 432 497 38,000  Level Memphis Center
02:45PM 34.1756 -91.2686 233° Southwest 432 497 38,000  Level Memphis Center
02:46PM 34.1081 -91.3808 234° Southwest 432 497 38,000  Level Memphis Center
02:47PM 34.0467 -91.4803 233° Southwest 427 491 38,000  Level Memphis Center
02:48PM 33.9747 -91.5944 233° Southwest 427 491 38,000  Level Memphis Center
02:49PM 33.9044 -91.7161 235° Southwest 427 491 38,000  Level Memphis Center
02:51PM 33.7483 -91.9656 233° Southwest 422 486 38,000  Level Fort Worth Center
02:52PM 33.6781 -92.0772 233° Southwest 433 498 38,000  Level Fort Worth Center
02:53PM 33.6058 -92.1939 233° Southwest 444 511 38,000  Level Fort Worth Center
02:54PM 33.5372 -92.3025 233° Southwest 437 503 38,000  Level Fort Worth Center
02:55PM 33.4644 -92.4139 232° Southwest 431 496 38,000  Level Fort Worth Center
02:56PM 33.3978 -92.5219 234° Southwest 425 489 38,000  Level Fort Worth Center
02:57PM 33.3272 -92.6378 234° Southwest 426 490 38,000  Level Fort Worth Center
02:58PM 33.2603 -92.7458 233° Southwest 426 490 38,000  Level Fort Worth Center
02:59PM 33.2147 -92.8697 246° West 415 478 38,000  Level Fort Worth Center
03:00PM 33.1733 -92.9961 249° West 409 471 38,000  Level Fort Worth Center
03:01PM 33.1336 -93.1169 249° West 404 465 38,000  Level Fort Worth Center
03:02PM 33.0919 -93.2431 249° West 399 459 38,000  Level Fort Worth Center
03:03PM 33.0481 -93.3664 247° West 399 459 38,000  Level Fort Worth Center
03:04PM 33.0022 -93.5022 248° West 399 459 38,000  Level Fort Worth Center
03:05PM 32.9603 -93.6278 248° West 399 459 38,000  Level Fort Worth Center
03:06PM 32.9178 -93.7508 248° West 404 465 38,000  Level Fort Worth Center
03:07PM 32.8756 -93.8789 249° West 404 465 38,000  Level Fort Worth Center
03:08PM 32.8311 -94.0042 247° West 409 471 38,000  Level Fort Worth Center
03:09PM 32.7864 -94.1344 248° West 420 483 38,000  Level Fort Worth Center
03:10PM 32.7417 -94.2594 247° West 420 483 38,000  Level Fort Worth Center
03:11PM 32.6989 -94.3869 248° West 420 483 38,000  Level Fort Worth Center
03:12PM 32.6539 -94.5142 247° West 420 483 38,000  Level Fort Worth Center
03:13PM 32.6108 -94.6439 249° West 420 483 38,000  Level Fort Worth Center
03:14PM 32.5656 -94.7683 247° West 420 483 38,000  Level Fort Worth Center
03:15PM 32.5203 -94.8956 247° West 420 483 38,000  Level Fort Worth Center
03:16PM 32.4767 -95.0222 248° West 420 483 38,000  Level Fort Worth Center
03:17PM 32.4394 -95.1464 250° West 413 475 38,000  Level Fort Worth Center
03:18PM 32.3994 -95.2581 247° West 413 475 38,000  Level Fort Worth Center
03:19PM 32.3556 -95.3794 247° West 413 475 38,000  Level Fort Worth Center
03:20PM 32.3117 -95.5058 248° West 408 470 38,000  Level Fort Worth Center
03:21PM 32.2675 -95.6247 246° West 408 470 38,000  Level Fort Worth Center
03:22PM 32.2233 -95.7458 247° West 403 464 38,000  Level Fort Worth Center
03:23PM 32.1789 -95.8694 247° West 398 458 38,000  Level Fort Worth Center
03:24PM 32.1303 -96.0003 246° West 398 458 38,000 -120 Level Fort Worth Center
03:25PM 32.0878 -96.1186 247° West 398 458 37,800 -900 Descending Fort Worth Center
03:26PM 32.0431 -96.2419 247° West 403 464 36,300 -1,500 Descending Fort Worth Center
03:27PM 31.9961 -96.3722 247° West 414 476 34,800 -1,500 Descending Fort Worth Center
03:28PM 31.9469 -96.5003 246° West 419 482 33,300 -1,560 Descending Fort Worth Center
03:29PM 31.8997 -96.6278 246° West 427 491 31,700 -1,560 Descending Fort Worth Center
03:30PM 31.8525 -96.7603 247° West 434 499 30,200 -1,440 Descending Fort Worth Center
03:31PM 31.8092 -96.8731 246° West 434 499 28,900 -1,440 Descending Fort Worth Center
03:32PM 31.7597 -97.0053 246° West 434 499 27,400 -1,500 Descending Fort Worth Center
03:33PM 31.7078 -97.1253 243° Southwest 434 499 25,900 -1,560 Descending Fort Worth Center
03:35PM 31.5378 -97.1869 197° South 473 544 23,800 -1,560 Descending Houston Center
03:36PM 31.4067 -97.1950 183° South 466 536 22,300 -1,500 Descending Houston Center
03:37PM 31.2814 -97.2047 184° South 453 521 20,800 -1,620 Descending Houston Center
03:38PM 31.1622 -97.2281 190° South 438 504 19,000 -1,800 Descending Houston Center
03:39PM 31.0542 -97.2692 198° South 414 476 17,100 -2,100 Descending Houston Center
03:40PM 30.9278 -97.3197 199° South 403 464 14,700 -2,040 Descending Houston Center
03:41PM 30.8261 -97.3589 198° South 389 448 13,000 -1,260 Descending Houston Center
03:42PM 30.7350 -97.4083 205° Southwest 365 420 12,100 -1,200 Descending Houston Center
03:43PM 30.6464 -97.4650 209° Southwest 366 421 10,600 -1,200 Descending Houston Center
03:44PM 30.5700 -97.5139 209° Southwest 345 397 9,700 -1,440 Descending Houston Center
03:45PM 30.4906 -97.5556 204° Southwest 299 344 7,600 -2,040 Descending Houston Center
03:46PM 30.4267 -97.5908 205° Southwest 277 319 5,600 -2,040 Descending Houston Center
03:47PM 30.3692 -97.6322 212° Southwest 260 299 3,500 -2,040 Descending Houston Center
03:49PM 30.2256 -97.6632 221° Southwest  Level Estimated
03:56PM 30.1945 -97.6699 221° Southwest  Level Estimated
03:57PM 30.1945 -97.6699 221° Southwest  Level Estimated
03:58PM 30.1945 -97.6699 221° Southwest  Level Estimated
03:59PM 30.1945 -97.6699 221° Southwest  Level Estimated